Bar Harbor, ME

6:22 AM EST on December 11, 2019 (GMT -0500)
Hancock County-Bar Harbor

Weather History for KBHB - July, 2019

Change the Weather History Date:

Monday, July 22, 2019

  Actual Average Record
Temperature  
Mean Temperature 71 °F -  
Max Temperature 79 °F 78 °F 93 °F (2011)
Min Temperature 62 °F 56 °F 49 °F (1966)
Cooling Degree Days 6    
Growing Degree Days 21 (Base 50)    
Moisture  
Dew Point 61 °F    
Average Humidity 75    
Maximum Humidity 100    
Minimum Humidity 52    
Precipitation  
Precipitation 0.04 in - - ()
Sea Level Pressure  
Sea Level Pressure 29.87 in    
Wind  
Wind Speed 3 mph (NW)    
Max Wind Speed 8 mph    
Max Gust Speed -    
Visibility 10 miles    
Events Rain    
Averages and records for this station are not official NWS values.
T = Trace of Precipitation, MM = Missing Value Source: NWS Daily Summary

Daily Weather History Graph

Daily Weather History Graph

Search for Another Location

Airport or City:

Astronomy

Jul. 22, 2019 Rise Set
Actual Time 5:09 AM EDT 8:09 PM EDT
Civil Twilight 4:34 AM EDT 8:44 PM EDT
Nautical Twilight 3:50 AM EDT 9:28 PM EDT
Astronomical Twilight 2:57 AM EDT 10:20 PM EDT
Moon 11:16 PM EDT (7/22) 10:33 AM EDT (7/22)
Length of Visible Light 16h 09m
Length of Day
15h 00m
Waning Gibbous, 72% of the Moon is Illuminated
Jul 22
Waning Gibbous
Jul 24
Last Quarter
Jul 31
New
Aug 7
First Quarter
Aug 15
Full

Hourly Weather History & Observations

Time (EDT) Temp. Dew Point Humidity Pressure Visibility Wind Dir Wind Speed Gust Speed Precip Events Conditions
12:56 AM 66.9 °F 64.9 °F 93% 29.78 in 10.0 mi Calm Calm - N/A   Mostly Cloudy
1:56 AM 66.0 °F 64.0 °F 93% 29.80 in 10.0 mi SE 4.6 mph - N/A   Mostly Cloudy
2:56 AM 66.9 °F 64.0 °F 90% 29.81 in 10.0 mi Calm Calm - N/A   Clear
3:56 AM 64.0 °F 64.0 °F 100% 29.83 in 6.0 mi SW 3.5 mph - N/A   Clear
4:56 AM 64.0 °F 64.0 °F 100% 29.84 in 8.0 mi SSW 3.5 mph - N/A   Clear
5:56 AM 64.9 °F 64.0 °F 97% 29.85 in 10.0 mi NW 4.6 mph - N/A   Clear
6:56 AM 69.1 °F 64.9 °F 87% 29.87 in 10.0 mi Variable 3.5 mph - N/A   Clear
7:41 AM 69.8 °F 64.4 °F 83% 29.86 in 10.0 mi NNW 6.9 mph - N/A   Mostly Cloudy
7:56 AM 71.1 °F 64.9 °F 81% 29.87 in 10.0 mi North 5.8 mph - N/A   Overcast
8:42 AM 73.4 °F 62.6 °F 69% 29.87 in 10.0 mi Variable 3.5 mph - N/A   Unknown
8:56 AM 73.0 °F 63.0 °F 71% 29.88 in 10.0 mi Variable 3.5 mph - N/A   Unknown
9:13 AM 73.4 °F 60.8 °F 65% 29.87 in 10.0 mi North 5.8 mph - N/A   Overcast
9:31 AM 75.2 °F 62.6 °F 65% 29.87 in 10.0 mi NE 3.5 mph - N/A   Unknown
9:56 AM 75.0 °F 61.0 °F 62% 29.88 in 3.0 mi NNE 5.8 mph - N/A   Haze
10:56 AM 78.1 °F 62.1 °F 58% 29.87 in 10.0 mi Calm Calm - N/A   Mostly Cloudy
11:56 AM 79.0 °F 60.1 °F 52% 29.88 in 10.0 mi WNW 8.1 mph - N/A   Partly Cloudy
12:56 PM 79.0 °F 60.1 °F 52% 29.88 in 10.0 mi Variable 4.6 mph - N/A   Scattered Clouds
1:56 PM 78.1 °F 59.0 °F 52% 29.88 in 10.0 mi West 8.1 mph - N/A   Clear
2:21 PM 77.0 °F 59.0 °F 54% 29.88 in 10.0 mi WNW 5.8 mph - N/A   Partly Cloudy
2:56 PM 77.0 °F 57.9 °F 52% 29.88 in 10.0 mi North 6.9 mph - N/A   Partly Cloudy
3:56 PM 73.9 °F 57.9 °F 57% 29.89 in 10.0 mi Variable 5.8 mph - N/A   Overcast
4:56 PM 73.0 °F 57.0 °F 57% 29.88 in 10.0 mi NW 6.9 mph - N/A   Overcast
5:56 PM 71.1 °F 57.0 °F 61% 29.88 in 10.0 mi Calm Calm - 0.00 in   Mostly Cloudy
6:56 PM 70.0 °F 57.9 °F 65% 29.88 in 10.0 mi Calm Calm - 0.00 in   Mostly Cloudy
7:56 PM 66.0 °F 61.0 °F 84% 29.88 in 10.0 mi Calm Calm - 0.00 in   Mostly Cloudy
8:56 PM 64.0 °F 62.1 °F 93% 29.89 in 10.0 mi Calm Calm - 0.00 in Rain Light Rain
9:56 PM 63.0 °F 60.1 °F 90% 29.88 in 10.0 mi SSE 4.6 mph - 0.01 in Rain Light Rain
10:56 PM 63.0 °F 61.0 °F 93% 29.88 in 10.0 mi Calm Calm - 0.01 in Rain Light Rain
11:56 PM 62.1 °F 61.0 °F 96% 29.88 in 10.0 mi Calm Calm - 0.02 in Rain Light Rain